McAlester, OK

5:04 PM CST on November 15, 2019 (GMT -0600)
McAlester Regional

Weather History for KMLC - October, 2019

Change the Weather History Date:

Wednesday, October 23, 2019

  Actual Average Record
Temperature  
Mean Temperature 60 °F -  
Max Temperature 77 °F 70 °F 88 °F (2003)
Min Temperature 46 °F 50 °F 33 °F (1990)
Degree Days  
Heating Degree Days 4    
Growing Degree Days 10 (Base 50)    
Moisture  
Dew Point 40 °F    
Average Humidity 44    
Maximum Humidity 79    
Minimum Humidity 29    
Precipitation  
Precipitation 0.00 in - - ()
Sea Level Pressure  
Sea Level Pressure 30.02 in    
Wind  
Wind Speed 7 mph ()    
Max Wind Speed 16 mph    
Max Gust Speed 31 mph    
Visibility 10.0 miles    
Events      
Averages and records for this station are not official NWS values.
T = Trace of Precipitation, MM = Missing Value Source: Averaged Metar Reports

Daily Weather History Graph

Daily Weather History Graph

Search for Another Location

Airport or City:

Astronomy

Oct. 23, 2019 Rise Set
Actual Time 7:35 AM CDT 6:38 PM CDT
Civil Twilight 7:09 AM CDT 7:04 PM CDT
Nautical Twilight 6:40 AM CDT 7:33 PM CDT
Astronomical Twilight 6:10 AM CDT 8:03 PM CDT
Moon 2:12 AM CDT (10/23) 4:14 PM CDT (10/23)
Length of Visible Light 11h 54m
Length of Day
11h 03m
Waning Crescent, 26% of the Moon is Illuminated
Oct 23
Waning Crescent
Oct 27
New
Nov 4
First Quarter
Nov 12
Full
Nov 19
Last Quarter

Hourly Weather History & Observations

Time (CDT) Temp. Windchill Dew Point Humidity Pressure Visibility Wind Dir Wind Speed Gust Speed Precip Events Conditions
12:53 AM 46.0 °F 44.8 °F 39.9 °F 79% 30.07 in 10.0 mi SW 3.5 mph - N/A   Partly Cloudy
1:53 AM 48.0 °F - 37.9 °F 68% 30.06 in 10.0 mi Calm Calm - N/A   Clear
3:53 AM 52.0 °F - 37.0 °F 57% 30.05 in 10.0 mi South 5.8 mph - N/A   Clear
4:53 AM 51.1 °F - 36.0 °F 56% 30.04 in 10.0 mi South 5.8 mph - N/A   Partly Cloudy
5:53 AM 52.0 °F - 36.0 °F 54% 30.04 in 10.0 mi Variable 6.9 mph - N/A   Mostly Cloudy
6:53 AM 53.1 °F - 36.0 °F 52% 30.05 in 10.0 mi South 5.8 mph - N/A   Clear
7:53 AM 53.1 °F - 36.0 °F 52% 30.06 in 10.0 mi Variable 5.8 mph - N/A   Clear
8:53 AM 57.0 °F - 37.0 °F 47% 30.07 in 10.0 mi South 8.1 mph 18.4 mph N/A   Clear
9:53 AM 62.1 °F - 39.0 °F 43% 30.09 in 10.0 mi South 12.7 mph 24.2 mph N/A   Clear
10:53 AM 66.9 °F - 39.0 °F 36% 30.07 in 10.0 mi South 12.7 mph 23.0 mph N/A   Clear
11:53 AM 71.1 °F - 37.0 °F 29% 30.04 in 10.0 mi South 16.1 mph 31.1 mph N/A   Partly Cloudy
12:53 PM 72.0 °F - 46.0 °F 40% 30.01 in 10.0 mi South 16.1 mph 25.3 mph N/A   Clear
1:53 PM 73.0 °F - 48.0 °F 41% 29.98 in 10.0 mi South 11.5 mph 23.0 mph N/A   Clear
2:53 PM 75.0 °F - 48.0 °F 38% 29.95 in 10.0 mi South 11.5 mph 28.8 mph N/A   Clear
3:53 PM 75.9 °F - 46.9 °F 36% 29.94 in 10.0 mi South 12.7 mph 23.0 mph N/A   Scattered Clouds
4:53 PM 75.0 °F - 45.0 °F 34% 29.94 in 10.0 mi South 10.4 mph 17.3 mph N/A   Partly Cloudy
5:53 PM 72.0 °F - 42.1 °F 34% 29.95 in 10.0 mi SSE 6.9 mph - N/A   Mostly Cloudy
6:53 PM 69.1 °F - 39.0 °F 33% 29.97 in 10.0 mi Variable 5.8 mph - N/A   Overcast
7:53 PM 68.0 °F - 39.0 °F 35% 30.00 in 10.0 mi SE 5.8 mph - N/A   Overcast
8:53 PM 66.0 °F - 39.9 °F 38% 30.00 in 10.0 mi Variable 6.9 mph - N/A   Mostly Cloudy
9:53 PM 66.9 °F - 41.0 °F 39% 30.00 in 10.0 mi SE 8.1 mph - N/A   Partly Cloudy
10:53 PM 66.0 °F - 41.0 °F 40% 29.99 in 10.0 mi SSE 10.4 mph 17.3 mph N/A   Partly Cloudy
11:53 PM 66.0 °F - 41.0 °F 40% 30.00 in 10.0 mi SSE 8.1 mph - N/A   Mostly Cloudy